BEIDOU-3 G2

Last updated on Sat Mar 14 2026 00:02:57 GMT+0000 (Coordinated Universal Time)

1 45344U 20017A 26072.58601896 -.00000139 00000+0 00000+0 0 9992 2 45344 2.6715 45.7322 0002715 321.8730 94.6232 1.00272551 22301
UTC large
Height (km)
Speed (km/s)
/
Latitude / Longitude
Inclination (degrees)
Orbital Period (minutes)
Azimuth
Elevation
Range (km)
Doppler Factor

Next 0 passes for location: London (51.5072 / 0.1276)

Sorry there are no passes over London.